Tracking 25710 objects as of 6-Jul-2022
HD Live streaming from Space Station
objects crossing your sky now

FENGYUN 1C DEB

Track FENGYUN 1C DEB now!
10-day predictions


NORAD ID: 31971
Int'l Code: 1999-025CNY
Perigee: 772.7 km
Apogee: 792.9 km
Inclination: 102.3 °
Period: 100.4 minutes
Semi major axis: 7153 km
RCS: 0.0103 m2 (small)
Launch date: May 10, 1999
Source: People's Republic of China (PRC)
Launch site: Taiyaun Space Center, China (TSC)

Note: This is SATELLITE DEBRIS
aabbcc
Your satellite tracking list
Your tracking list is empty




NASA's NSSDC Master Catalog

Two Line Element Set (TLE):
1 31971U 99025CNY 22185.97334703  .00001543  00000-0  57041-3 0  9993
2 31971 102.2674 262.0291 0014108 278.0222 257.6499 14.34822978472018
Source of the keplerian elements: AFSPC